When you browse on this site, cookies collect data to enhance your experience and personalize the content and advertising you see.
Visit our Privacy Policy to learn more. By continuing to use the site, you agree to this use of cookies and data.

Hourly Weather Podyachevka

Today, 11 July, Saturday

Time Temperature Precipitation Wind Pressure Humidity
00:00 +18°C° 0.2 mm 4 mps 752 mmHg 93%
01:00 +18°C° 0.2 mm 4 mps 753 mmHg 92%
02:00 +18°C° 0.2 mm 4 mps 753 mmHg 92%
03:00 +16°C° 0 mm 5 mps 753 mmHg 92%
04:00 +16°C° 0.8 mm 5 mps 753 mmHg 91%
05:00 +17°C° 0.8 mm 5 mps 753 mmHg 91%
06:00 +17°C° 0.8 mm 5 mps 753 mmHg 90%
07:00 +19°C° 0.2 mm 5 mps 753 mmHg 84%
08:00 +20°C° 0.2 mm 5 mps 753 mmHg 78%
09:00 +21°C° 0 mm 5 mps 754 mmHg 71%
10:00 +22°C° 0 mm 6 mps 754 mmHg 68%
11:00 +23°C° 0 mm 6 mps 754 mmHg 64%
12:00 +24°C° 0 mm 6 mps 754 mmHg 60%
13:00 +25°C° 0 mm 5 mps 754 mmHg 59%
14:00 +25°C° 0 mm 5 mps 754 mmHg 59%
15:00 +26°C° 0 mm 5 mps 754 mmHg 59%
16:00 +25°C° 0 mm 4 mps 754 mmHg 62%
17:00 +25°C° 0 mm 4 mps 753 mmHg 66%
18:00 +24°C° 0 mm 3 mps 753 mmHg 70%
19:00 +21°C° 0 mm 3 mps 754 mmHg 74%
20:00 +20°C° 0 mm 3 mps 754 mmHg 78%
21:00 +18°C° 0 mm 3 mps 754 mmHg 82%
22:00 +18°C° 0 mm 2 mps 754 mmHg 83%
23:00 +17°C° 0 mm 2 mps 754 mmHg 85%

Tomorrow, 12 July, Sunday

Time Temperature Precipitation Wind Pressure Humidity
00:00 +17°C° 0 mm 2 mps 753 mmHg 87%
01:00 +16°C° 0 mm 2 mps 754 mmHg 88%
02:00 +16°C° 0 mm 2 mps 754 mmHg 89%
03:00 +16°C° 0 mm 3 mps 754 mmHg 90%
04:00 +17°C° 0 mm 3 mps 754 mmHg 87%
05:00 +18°C° 0 mm 3 mps 753 mmHg 84%
06:00 +19°C° 0 mm 3 mps 753 mmHg 81%
07:00 +20°C° 0 mm 3 mps 753 mmHg 77%
08:00 +22°C° 0 mm 3 mps 753 mmHg 72%
09:00 +24°C° 0 mm 3 mps 753 mmHg 67%
10:00 +25°C° 0 mm 3 mps 753 mmHg 63%
11:00 +26°C° 0 mm 3 mps 753 mmHg 60%
12:00 +27°C° 0 mm 3 mps 752 mmHg 56%
13:00 +27°C° 0 mm 3 mps 752 mmHg 56%
14:00 +28°C° 0 mm 3 mps 752 mmHg 56%
15:00 +28°C° 0 mm 3 mps 752 mmHg 56%
16:00 +27°C° 0 mm 3 mps 751 mmHg 61%
17:00 +27°C° 0 mm 3 mps 751 mmHg 65%
18:00 +26°C° 0 mm 2 mps 750 mmHg 70%
19:00 +25°C° 0 mm 2 mps 751 mmHg 75%
20:00 +23°C° 0 mm 2 mps 751 mmHg 80%
21:00 +21°C° 0 mm 2 mps 751 mmHg 85%
22:00 +20°C° 0 mm 2 mps 750 mmHg 87%
23:00 +20°C° 0 mm 2 mps 750 mmHg 89%

Day after tomorrow, 13 July, Monday

Time Temperature Precipitation Wind Pressure Humidity
00:00 +20°C° 0 mm 2 mps 750 mmHg 90%
01:00 +20°C° 0.2 mm 3 mps 750 mmHg 91%
02:00 +20°C° 0.2 mm 3 mps 750 mmHg 92%
03:00 +20°C° 0.2 mm 3 mps 749 mmHg 92%
04:00 +20°C° 0 mm 3 mps 749 mmHg 93%
05:00 +21°C° 0 mm 3 mps 749 mmHg 93%
06:00 +21°C° 0 mm 3 mps 749 mmHg 93%
07:00 +24°C° 0 mm 3 mps 749 mmHg 88%
08:00 +26°C° 0 mm 3 mps 749 mmHg 83%
09:00 +27°C° 0 mm 3 mps 749 mmHg 79%
10:00 +28°C° 0 mm 3 mps 748 mmHg 73%
11:00 +30°C° 0 mm 3 mps 748 mmHg 67%
12:00 +31°C° 0 mm 3 mps 747 mmHg 61%
13:00 +31°C° 0 mm 3 mps 747 mmHg 60%
14:00 +33°C° 0 mm 3 mps 747 mmHg 60%
15:00 +33°C° 0 mm 4 mps 747 mmHg 59%
16:00 +33°C° 0 mm 3 mps 747 mmHg 62%
17:00 +31°C° 0 mm 3 mps 747 mmHg 66%
18:00 +31°C° 0 mm 3 mps 746 mmHg 70%
19:00 +29°C° 0 mm 2 mps 746 mmHg 73%
20:00 +28°C° 0 mm 2 mps 746 mmHg 75%
21:00 +26°C° 0 mm 2 mps 746 mmHg 78%
22:00 +26°C° 0 mm 2 mps 746 mmHg 78%
23:00 +25°C° 0 mm 1 mps 746 mmHg 78%

14 July, Tuesday

Time Temperature Precipitation Wind Pressure Humidity
00:00 +25°C° 0 mm 1 mps 746 mmHg 78%
01:00 +24°C° 0.6 mm 1 mps 746 mmHg 76%
02:00 +24°C° 0.6 mm 2 mps 746 mmHg 74%
03:00 +24°C° 0.6 mm 2 mps 746 mmHg 72%
04:00 +24°C° 0 mm 3 mps 746 mmHg 73%
05:00 +24°C° 0 mm 3 mps 745 mmHg 75%
06:00 +25°C° 0 mm 4 mps 745 mmHg 76%
07:00 +26°C° 0 mm 4 mps 745 mmHg 72%
08:00 +27°C° 0 mm 5 mps 746 mmHg 67%
09:00 +28°C° 0 mm 5 mps 746 mmHg 62%
10:00 +30°C° 0 mm 5 mps 746 mmHg 61%
11:00 +32°C° 0 mm 5 mps 746 mmHg 59%
12:00 +33°C° 0 mm 5 mps 746 mmHg 57%
13:00 +34°C° 0 mm 5 mps 745 mmHg 56%
14:00 +35°C° 0 mm 5 mps 745 mmHg 54%
15:00 +36°C° 0 mm 5 mps 745 mmHg 52%
16:00 +34°C° 0.1 mm 5 mps 745 mmHg 56%
17:00 +32°C° 0.1 mm 5 mps 745 mmHg 60%
18:00 +29°C° 0.1 mm 5 mps 745 mmHg 63%
19:00 +28°C° 0 mm 4 mps 745 mmHg 66%
20:00 +27°C° 0 mm 3 mps 745 mmHg 69%
21:00 +25°C° 0 mm 2 mps 745 mmHg 72%
22:00 +26°C° 0 mm 3 mps 745 mmHg 68%
23:00 +26°C° 0 mm 4 mps 745 mmHg 64%

15 July, Wednesday

Time Temperature Precipitation Wind Pressure Humidity
00:00 +26°C° 0 mm 5 mps 745 mmHg 60%
01:00 +26°C° 0.1 mm 4 mps 745 mmHg 59%
02:00 +25°C° 0.1 mm 4 mps 744 mmHg 58%
03:00 +24°C° 0.1 mm 3 mps 744 mmHg 57%
04:00 +24°C° 0 mm 3 mps 744 mmHg 58%
05:00 +23°C° 0 mm 4 mps 744 mmHg 59%
06:00 +25°C° 0 mm 4 mps 744 mmHg 59%
07:00 +26°C° 0 mm 4 mps 744 mmHg 58%
08:00 +27°C° 0 mm 4 mps 744 mmHg 56%
09:00 +28°C° 0 mm 4 mps 744 mmHg 54%
10:00 +29°C° 0 mm 4 mps 744 mmHg 53%
11:00 +30°C° 0 mm 3 mps 744 mmHg 52%
12:00 +31°C° 0 mm 3 mps 744 mmHg 52%
13:00 +31°C° 0 mm 3 mps 744 mmHg 53%
14:00 +33°C° 0 mm 4 mps 744 mmHg 54%
15:00 +33°C° 0 mm 4 mps 744 mmHg 55%
16:00 +32°C° 0 mm 4 mps 744 mmHg 61%
17:00 +30°C° 0 mm 3 mps 744 mmHg 66%
18:00 +29°C° 0 mm 3 mps 744 mmHg 72%
19:00 +27°C° 0 mm 3 mps 744 mmHg 72%
20:00 +26°C° 0 mm 2 mps 744 mmHg 72%
21:00 +24°C° 0 mm 2 mps 744 mmHg 72%
22:00 +24°C° 0 mm 2 mps 744 mmHg 75%
23:00 +23°C° 0 mm 1 mps 744 mmHg 77%

16 July, Thursday

Time Temperature Precipitation Wind Pressure Humidity
00:00 +22°C° 0 mm 1 mps 744 mmHg 80%
01:00 +22°C° 0 mm 1 mps 744 mmHg 80%
02:00 +22°C° 0 mm 1 mps 744 mmHg 80%
03:00 +22°C° 0 mm 1 mps 743 mmHg 80%
04:00 +21°C° 0 mm 2 mps 743 mmHg 79%
05:00 +23°C° 0 mm 2 mps 743 mmHg 79%
06:00 +23°C° 0 mm 2 mps 743 mmHg 79%
07:00 +24°C° 0 mm 2 mps 743 mmHg 72%
08:00 +25°C° 0 mm 2 mps 743 mmHg 66%
09:00 +26°C° 0 mm 1 mps 742 mmHg 59%
10:00 +27°C° 0 mm 3 mps 742 mmHg 56%
11:00 +28°C° 0 mm 4 mps 742 mmHg 53%
12:00 +29°C° 0 mm 5 mps 743 mmHg 50%
13:00 +29°C° 0 mm 6 mps 743 mmHg 52%
14:00 +28°C° 0 mm 6 mps 743 mmHg 54%
15:00 +28°C° 0 mm 6 mps 743 mmHg 56%
16:00 +27°C° 0 mm 6 mps 743 mmHg 60%
17:00 +26°C° 0 mm 6 mps 743 mmHg 65%
18:00 +25°C° 0 mm 5 mps 743 mmHg 69%
19:00 +22°C° 0 mm 5 mps 743 mmHg 73%
20:00 +21°C° 0 mm 4 mps 744 mmHg 76%
21:00 +19°C° 0 mm 4 mps 744 mmHg 80%
22:00 +18°C° 0 mm 3 mps 744 mmHg 82%
23:00 +17°C° 0 mm 3 mps 744 mmHg 83%
Show more